Showing default

AE2A, 64591

Orbit data source: Space-Track

AE2A, 64591 is a payload satellite owned by ArkEdge (JP) in SSO that was launched on Mon, 23 Jun 2025 UTC via an FALCON 9 launch vehicle from the Air Force Western Test Range (AFWTR). Payload-class satellites include a variety of spacecraft equipped with specific instruments for various scientific and technological missions. These include communications satellites like Starlink; space stations such as the ISS; scientific satellites like the Hubble; Earth observation satellites from companies like Planet Labs, Umbra, and HawkEye 360; GPS; miniature CubeSats for education and research; and military/defense satellites.

Loading next visibility...
Identifier
64591, 2025-135BR
Orbit
SSO
Country
Flag of JPJP / JPN
Related business
Manufacturer
ArkEdge
Mission
Operational Commercial Imaging
Bus & Motor
CUBESAT 6U, Unknown motor
Mass
~10 kg wet, ~10 kg dry
Launch date (UTC)
2025-06-23 (8 months ago)
Launch vehicle
FALCON 9
Launch site
Air Force Western Test Range (AFWTR)
Object type
Payload
Rocket body
Debris
Shape & HBR
Box + 2 Pan, 0.1 m
Radar Cross Section
0.080 m², Medium (>0.1 m² and < 1m²)

Expand to show TLE details & history
Last TLE update: 6 hours ago

TLE from 6 hours ago
0 AE2A
1 64591U 25135BR  26062.51762839  .00008039  00000-0  72216-3 0  9999
2 64591  97.7556 178.5635 0004206 331.0866  29.0121 14.95952640 38157
Epoch: 2026-03-03T12:25Z
TLE epoch observation values (Epoch: 2026-03-03T12:25:23.092Z)
Latitude
-0.00009°
Longitude
-169.07825°
Altitude
579.906 km
Speed
7.572 km/s
True Right ascension
11h 54m 15s
True Declination
0° 00' 00"
Sunlit
Object was in full shadow at epoch
Visualization orbit readout
Latitude
Unknown
Longitude
Unknown
Altitude
Unknown
Speed
Unknown
Apparent Right ascension
Unknown
Apparent Declination
Unknown
Sunlit
N/A
Visualization observer readout
Local Sidereal Time
21:48:32
Azimuth
Unknown
Elevation
Unknown
Doppler factor
Unknown
Orbital elements
Apogee altitude
579.356 km
Perigee altitude
573.505 km
Semi-major axis
6,954.568 km
Eccentricity
0.00042
Inclination
97.7556°
RAAN
178.5635°
Arg. of periapsis
331.0866°
True anomaly
29.03549°
Mean anomaly
29.0121°
Eccentric anomaly
29.02379°
Mean motion
3.74229 °/min
Orbital period
96.2 mins
BSTAR
0.00072216
Loading maneuver chart data...
Computing Atmospheric mass density...
Loading historical data...
Loading historical data...
Loading historical data...
Loading historical data...
Loading historical data...
Loading historical data...
Loading historical data...

Documentation

Showing up to 5 results
|